Skip Page Navigation
NASA JPL Caltech
NASA Logo - Jet Propulsion Laboratory + View the NASA Portal
+ Near-Earth Object (NEO) Program
Search JPL
JPL Home Earth Solar System Stars & Galaxies Technology
JPL Solar System Dynamics
BODIES ORBITS EPHEMERIDES TOOLS PHYSICAL DATA DISCOVERY FAQ SITE MAP
JPL Small-Body Database Browser
Search: [ help ]  
215588 (2003 HF2)
Classification: Apollo [NEO, PHA]          SPK-ID: 2215588
Ephemeris | Orbit Diagram | Orbital Elements | Physical Parameters | Discovery Circumstances | Close-Approach Data ]

[ hide orbit diagram ]
Orbit Diagram
Note: Make sure you have Java enabled on your browser to see the applet. This applet is provided as a 3D orbit visualization tool. The applet was implemented using 2-body methods, and hence should not be used for determining accurate long-term trajectories (over several years or decades) or planetary encounter circumstances. For accurate long-term ephemerides, please instead use our Horizons system.
Orbit Viewer

Additional Notes: the orbits shown in the applet are color coded. The planets are white lines, and the asteroid/comet is a blue line. The bright white line indicates the portion of the orbit that is above the ecliptic plane, and the darker portion is below the ecliptic plane. Likewise for the asteroid/comet orbit, the light blue indicates the portion above the ecliptic plane, and the dark blue the portion below the ecliptic plane.

Orbit Viewer applet originally written and kindly provided by Osamu Ajiki (AstroArts), and further modified by Ron Baalke (JPL).


Orbital Elements at Epoch 2456400.5 (2013-Apr-18.0) TDB
Reference: JPL 41 (heliocentric ecliptic J2000)
 Element Value Uncertainty (1-sigma)   Units 
e .6755288655791468 5.4879e-08  
a 1.11348864166336 1.4764e-08 AU
q .3612949227252452 6.2434e-08 AU
i 3.056557911102249 4.5839e-06 deg
node 190.0351339540389 0.00014775 deg
peri 230.8626514664106 0.00014641 deg
M 273.4454295928159 3.5268e-05 deg
tp 2456503.684536634652
(2013-Jul-30.18453663)
4.3964e-05 JED
period 429.1677841357703
1.17
8.5354e-06
2.337e-08
d
yr
n .8388327672939017 1.6683e-08 deg/d
Q 1.865682360601475 2.4737e-08 AU
  Orbit Determination Parameters
   # obs. used (total)      239  
   data-arc span      2904 days (7.95 yr)  
   first obs. used      2002-05-10  
   last obs. used      2010-04-22  
   planetary ephem.      DE405  
   SB-pert. ephem.      SB405-CPV-2  
   condition code      0  
   fit RMS      .65848  
   data source      ORB  
   producer      Otto Matic  
   solution date      2013-Apr-29 15:40:39  

Additional Information
 Earth MOID = .00326065 AU 
 T_jup = 5.354 
[ show covariance matrix ]

Ephemeris | Orbit Diagram | Orbital Elements | Physical Parameters | Discovery Circumstances | Close-Approach Data ]

Physical Parameter Table
Parameter Symbol Value Units Sigma Reference Notes
absolute magnitude H 19.445 mag .61055 41 autocmod 2.5c

215588 (2003 HF2)          Discovered 2003-Apr-24 by LONEOS at Anderson Mesa (699)
Reference: 20090607/Numbers.arcLast Updated: 2009-06-08

[ show close-approach data ]
Ephemeris | Orbit Diagram | Orbital Elements | Physical Parameters | Discovery Circumstances | Close-Approach Data ]
ABOUT SSD CREDITS/AWARDS PRIVACY/COPYRIGHT GLOSSARY LINKS
FirstGov 2013-Jun-19 01:23 UT
(server date/time)  
NASA Home Page
Site Manager:   Donald K. Yeomans
Webmaster  Alan B. Chamberlin